TimeEST,TemperatureF,Dew PointF,Humidity,Sea Level PressureIn,VisibilityMPH,Wind Direction,Wind SpeedMPH,Gust SpeedMPH,PrecipitationIn,Events,Conditions,WindDirDegrees,DateUTC
12:53 AM,21.9,3.0,44,29.81,10.0,North,6.9,-,N/A,,Overcast,360,2013-02-17 05:53:00
1:53 AM,19.9,1.9,46,29.80,10.0,NNW,9.2,-,N/A,,Overcast,330,2013-02-17 06:53:00
2:53 AM,19.9,1.0,44,29.79,10.0,NNW,6.9,-,N/A,,Overcast,340,2013-02-17 07:53:00
3:53 AM,19.0,1.9,47,29.76,10.0,North,10.4,-,N/A,,Overcast,350,2013-02-17 08:53:00
4:53 AM,18.0,1.0,48,29.74,10.0,North,9.2,26.5,N/A,,Overcast,350,2013-02-17 09:53:00
5:53 AM,17.1,1.9,52,29.73,10.0,North,9.2,16.1,N/A,,Overcast,350,2013-02-17 10:53:00
6:53 AM,16.0,3.0,57,29.70,10.0,NNW,11.5,-,N/A,,Overcast,330,2013-02-17 11:53:00
7:53 AM,16.0,3.9,59,29.68,10.0,NNW,8.1,17.3,N/A,,Overcast,340,2013-02-17 12:53:00
8:53 AM,16.0,3.9,59,29.64,10.0,NNW,12.7,20.7,N/A,,Overcast,340,2013-02-17 13:53:00
9:53 AM,16.0,3.9,59,29.62,10.0,NNW,16.1,25.3,N/A,,Overcast,340,2013-02-17 14:53:00
10:53 AM,17.1,3.9,56,29.60,10.0,NNW,15.0,24.2,N/A,,Overcast,330,2013-02-17 15:53:00
11:53 AM,17.1,1.9,52,29.58,10.0,NNW,19.6,32.2,N/A,,Overcast,340,2013-02-17 16:53:00
12:53 PM,17.1,-0.0,47,29.57,10.0,North,13.8,29.9,N/A,,Mostly Cloudy,350,2013-02-17 17:53:00
1:53 PM,18.0,1.0,48,29.57,10.0,NW,13.8,21.9,N/A,,Overcast,320,2013-02-17 18:53:00
2:53 PM,18.0,-0.9,44,29.57,10.0,NNW,20.7,32.2,N/A,,Mostly Cloudy,340,2013-02-17 19:53:00
3:53 PM,18.0,-0.0,45,29.59,10.0,NNW,13.8,27.6,N/A,,Partly Cloudy,330,2013-02-17 20:53:00
4:53 PM,16.0,-0.9,47,29.62,10.0,NNW,18.4,28.8,N/A,,Overcast,330,2013-02-17 21:53:00
5:53 PM,16.0,-0.9,47,29.65,10.0,NW,11.5,18.4,N/A,,Overcast,310,2013-02-17 22:53:00
6:53 PM,16.0,-0.9,47,29.66,10.0,NW,25.3,34.5,N/A,,Mostly Cloudy,310,2013-02-17 23:53:00
7:53 PM,14.0,-2.0,49,29.69,10.0,NW,21.9,33.4,N/A,,Overcast,320,2013-02-18 00:53:00
8:53 PM,14.0,-0.9,52,29.70,10.0,NW,17.3,31.1,N/A,,Partly Cloudy,310,2013-02-18 01:53:00
9:53 PM,12.9,-0.9,54,29.73,10.0,NNW,12.7,24.2,N/A,,Partly Cloudy,330,2013-02-18 02:53:00
10:53 PM,12.9,-0.0,56,29.76,10.0,NW,8.1,17.3,N/A,,Overcast,320,2013-02-18 03:53:00